This is the latest recevied weather packets stored in our database for station/object KB1FFS. If no packets are shown the sender has not sent any weather packets the latest 10 day(s).
| Time | Temp. | Humidity | Pressure | Rain* | Wind** | Luminosity | Snow |
|---|---|---|---|---|---|---|---|
| 1787681109 | 35° C | 41% | 1016.3 hPa | 0 mm | - | 422 W/m² | - |
| 1787680804 | 35° C | 39% | 1016.3 hPa | 0 mm | - | 194 W/m² | - |
| 1787680499 | 35.56° C | 39% | 1016.4 hPa | 0 mm | - | 161 W/m² | - |
| 1787680197 | 36.11° C | 38% | 1016.6 hPa | 0 mm | - | 162 W/m² | - |
| 1787679892 | 36.67° C | 39% | 1016.6 hPa | 0 mm | - | 448 W/m² | - |
| 1787679591 | 36.11° C | 40% | 1017 hPa | 0 mm | - | 475 W/m² | - |
| 1787679288 | 35.56° C | 40% | 1017 hPa | 0 mm | - | 562 W/m² | - |
| 1787678983 | 34.44° C | 42% | 1016.9 hPa | 0 mm | - | 461 W/m² | - |
| 1787678683 | 34.44° C | 43% | 1017.1 hPa | 0 mm | - | 253 W/m² | - |
| 1787678378 | 34.44° C | 43% | 1017.3 hPa | 0 mm | - | 253 W/m² | - |
| 1787678073 | 34.44° C | 43% | 1017.4 hPa | 0 mm | - | 253 W/m² | - |
| 1787677772 | 34.44° C | 43% | 1017.5 hPa | 0 mm | - | 274 W/m² | - |
| 1787677467 | 34.44° C | 43% | 1017.6 hPa | 0 mm | - | 317 W/m² | - |
| 1787677166 | 34.44° C | 42% | 1017.7 hPa | 0 mm | - | 240 W/m² | - |
| 1787676861 | 34.44° C | 42% | 1017.9 hPa | 0 mm | - | 298 W/m² | - |
| 1787676555 | 35° C | 42% | 1017.9 hPa | 0 mm | - | 343 W/m² | - |
| 1787676253 | 34.44° C | 42% | 1018 hPa | 0 mm | - | 482 W/m² | - |
| 1787675953 | 34.44° C | 44% | 1017.9 hPa | 0 mm | - | 591 W/m² | - |
| 1787675649 | 33.89° C | 45% | 1018 hPa | 0 mm | - | 525 W/m² | - |
| 1787675347 | 33.89° C | 44% | 1018.2 hPa | 0 mm | - | 430 W/m² | - |
| 1787674737 | 32.78° C | 46% | 1018 hPa | 0 mm | - | 429 W/m² | - |
| 1787674433 | 32.78° C | 46% | 1018.1 hPa | 0 mm | - | 239 W/m² | - |
| 1787674132 | 31.67° C | 48% | 1018.2 hPa | 0 mm | - | 366 W/m² | - |
| 1787673828 | 31.11° C | 49% | 1018 hPa | 0 mm | - | 362 W/m² | - |
| 1787673523 | 30.56° C | 50% | 1018.4 hPa | 0 mm | - | 177 W/m² | - |
* Rain latest hour (hover to see other rain measurements)
** Current wind speed in m/s (hover to see current wind gust speed)